Hourly Weather Roundup
Issued by NWS Central Illinois

Home | Current Version | Previous Version | Text Only | Print | Product List | Glossary On
Versions: 1 2 3 4 5 6 7 8 9 10 11 12 13 14 15 16 17 18 19 20 21 22 23 24 25 26 27 28 29 30 31 32 33 34 35 36 37 38 39 40 41 42 43 44 45 46 47 48 49 50
000
NZUS43 KILX 041710
HWRILX

AREA WEATHER ROUNDUP
NATIONAL WEATHER SERVICE, LINCOLN IL
1200 PM CDT SAT JUL 04 2015


CITY           SKY/WX    TMP DP  RH WIND       PRES   REMARKS
BLOOMINGTON    MOSUNNY   76  60  57 VRB6      30.05S
CHAMPAIGN      MOSUNNY   77  59  53 CALM      30.04S
DANVILLE       PTSUNNY   75  61  60 SE3       30.02R
DECATUR        MOSUNNY   78  59  51 VRB3      30.04S
EFFINGHAM      CLOUDY    76  58  53 CALM      30.05S
FLORA          SUNNY     76  64  64 CALM      30.03S
GALESBURG      MOSUNNY   77  59  54 CALM      30.04S
JACKSONVILLE   PTSUNNY   78  66  67 S5        30.04R HX  80
LACON          SUNNY     76  56  51 CALM      30.02F
LAWRENCEVILLE  MOSUNNY   79  66  64 N5        30.03S HX  81
LITCHFIELD     PTSUNNY   77  60  55 CALM      30.04S
$$


CITY           SKY/WX    TMP DP  RH WIND       PRES   REMARKS
LINCOLN        MOSUNNY   79  60  50 S7        30.03F HX  80
MACOMB         PTSUNNY   76  62  61 SW5       30.05S
MATTOON        MOSUNNY   76  61  59 VRB3      30.03S
MT CARMEL AP   SUNNY     79  64  61 CALM      30.02F HX  81
OLNEY-NOBLE AP MOSUNNY   77  66  69 NE5       30.03S
PARIS          MOSUNNY   77  63  61 E3        30.05R
PEORIA         MOSUNNY   79  60  52 SW5       30.03F HX  80
PONTIAC        SUNNY     77  62  60 S3        30.03F
RANTOUL        SUNNY     78  61  54 CALM      30.04R HX  80
ROBINSON       MOSUNNY   78  63  59 CALM      30.04S HX  80
SPRINGFIELD    PTSUNNY   79  63  57 W3        30.04S HX  80
TAYLORVILLE    MOSUNNY   73  59  60 CALM      30.04S
$$

...REGIONAL REPORTS...


CITY           SKY/WX    TMP DP  RH WIND       PRES   REMARKS
CHICAGO O`HARE SUNNY     76  54  46 S6        30.01R
KANKAKEE       MOSUNNY   80  64  57 SW5       30.03S HX  81
MOLINE         SUNNY     78  58  49 VRB3      30.02S
MOUNT STERLING NOT AVBL
MOUNT VERNON   MOSUNNY   77  64  65 N5        30.02F
PITTSFIELD     MOSUNNY   78  63  60 CALM      30.04F
QUINCY         MOSUNNY   78  60  53 VRB3      30.03S
ROCKFORD       MOSUNNY   78  60  53 CALM      30.03R
$$


CITY           SKY/WX    TMP DP  RH WIND       PRES   REMARKS
BURLINGTON     SUNNY     76  61  59 S7        30.03S
CEDAR RAPIDS   SUNNY     75  62  64 S5        30.02R
DES MOINES     MOSUNNY   78  58  49 VRB5      30.01S
KIRKSVILLE     SUNNY     77  61  57 VRB5      30.05S
OTTUMWA        SUNNY     75  60  59 S6        30.02S
ST LOUIS       MOSUNNY   81  61  50 CALM      30.03S HX  82
$$


CITY           SKY/WX    TMP DP  RH WIND       PRES   REMARKS
TERRE HAUTE    SUNNY     77  61  57 CALM      30.03S
EVANSVILLE     PTSUNNY   79  66  64 NE7       30.01S HX  81
INDIANAPOLIS   MOSUNNY   77  57  50 SE5       30.02R
LAFAYETTE      SUNNY     76  61  59 NW7       30.03R
MADISON        SUNNY     77  59  53 SW6       29.99S
MILWAUKEE      MOSUNNY   79  58  48 VRB3      29.99S HX  80
$$




USA.gov is the U.S. government's official web portal to all federal, state and local government web resources and services.